This is the latest recevied weather packets stored in our database for station/object IU3OVK-13. If no packets are shown the sender has not sent any weather packets the latest 10 day(s).
| Time | Temp. | Humidity | Pressure | Rain* | Wind** | Luminosity | Snow |
|---|---|---|---|---|---|---|---|
| 1777521376 | 9.44° C | 99% | 1016.9 hPa | - | - | - | - |
| 1777520756 | 9.44° C | 99% | 1016.8 hPa | - | - | - | - |
| 1777520136 | 10° C | 99% | 1016.5 hPa | - | - | - | - |
| 1777519516 | 10° C | 99% | 1016.5 hPa | - | - | - | - |
| 1777518897 | 10° C | 99% | 1016.2 hPa | - | - | - | - |
| 1777518275 | 10° C | 99% | 1016 hPa | - | - | - | - |
| 1777516416 | 10.56° C | 99% | 1015.5 hPa | - | - | - | - |
| 1777515795 | 10.56° C | 99% | 1015.8 hPa | - | - | - | - |
| 1777514555 | 11.11° C | 99% | 1015.3 hPa | - | - | - | - |
| 1777513314 | 11.11° C | 99% | 1015.5 hPa | - | - | - | - |
| 1777512694 | 11.11° C | 99% | 1015.6 hPa | - | - | - | - |
| 1777512074 | 11.11° C | 99% | 1015.6 hPa | - | - | - | - |
| 1777511454 | 11.11° C | 99% | 1016.4 hPa | - | - | - | - |
| 1777510834 | 11.11° C | 99% | 1016.6 hPa | - | - | - | - |
| 1777510214 | 10.56° C | 99% | 1016.5 hPa | - | - | - | - |
| 1777507733 | 11.11° C | 99% | 1016 hPa | - | - | - | - |
| 1777507113 | 11.67° C | 99% | 1015.7 hPa | - | - | - | - |
| 1777506493 | 11.67° C | 99% | 1015.6 hPa | - | - | - | - |
| 1777505873 | 11.67° C | 99% | 1015.7 hPa | - | - | - | - |
| 1777505252 | 11.11° C | 99% | 1015.7 hPa | - | - | - | - |
| 1777504012 | 11.11° C | 99% | 1015.4 hPa | - | - | - | - |
| 1777503392 | 11.67° C | 99% | 1015.6 hPa | - | - | - | - |
| 1777502772 | 10.56° C | 99% | 1015.9 hPa | - | - | - | - |
| 1777501532 | 11.11° C | 99% | 1015.7 hPa | - | - | - | - |
| 1777500911 | 11.11° C | 99% | 1015.6 hPa | - | - | - | - |
* Rain since midnight (hover to see other rain measurements)
** Current wind speed in m/s (hover to see current wind gust speed)